Regional Weather Roundup
Issued by NWS Austin/San Antonio, TX

Home | Current Version | Previous Version | Text Only | Print | Product List | Glossary On
Versions: 1 2 3 4 5 6 7 8 9 10 11 12 13 14 15 16 17 18 19 20 21 22 23 24 25 26 27 28 29 30 31 32 33 34 35 36 37 38 39 40 41 42 43 44 45 46 47 48 49 50
000
ASUS44 KEWX 151702
RWREWX
SOUTH TEXAS REGIONAL WEATHER ROUNDUP
NATIONAL WEATHER SERVICE AUSTIN/SAN ANTONIO TX
1100 AM CST MON JAN 15 2018

NOTE: "FAIR" INDICATED FEW OR NO CLOUDS BELOW 12,000 FEET WITH NO
SIGNIFICANT WEATHER AND/OR OBSTRUCTIONS TO VISIBILITY.

* - THESE STATIONS ARE NOT NWS OR FAA STATIONS...AND ARE NOT SUBJECT
    TO NWS AND FAA QUALITY CONTROL.

TXZ171-172-183>190-151800-
TEXAS HILL COUNTRY AND EDWARDS PLATEAU

CITY           SKY/WX    TMP DP  RH WIND       PRES   REMARKS
JUNCTION       MOSUNNY   58  47  66 S16G22    30.26F
*LLANO         PTSUNNY   54  45  71 CALM      30.33S
BURNET         PTSUNNY   54  49  83 S8G18     30.32F
*HORSESHOE BAY CLOUDY    60  51  72 S5G16     30.30F
*KERRVILLE     CLOUDY    54  48  81 S9        30.31S
*FREDERICKSBRG CLOUDY    55  47  74 SW9G18    30.30F
*ROCKSPRINGS     N/A     52  52 100 S16       30.33R
*BOERNE STAGE  CLOUDY    52  48  87 S8        30.32S
*CASTROVILLE   CLOUDY    56  46  70 S3        30.34S
HONDO          PTSUNNY   59  48  67 S6        30.32S
*UVALDE        MOSUNNY   58  48  69 S9        30.31F
DEL RIO        SUNNY     55  46  71 SE13      30.26F
LAUGHLIN AFB   MOSUNNY   57  47  69 S10       30.26F
CARRIZO SPRGS  SUNNY     55  46  71 S5        30.29F
*EAGLE PASS    SUNNY     59  46  63 SE10      30.27F
*FAITH RANCH   SUNNY     61  50  67 VRB7      30.29S
$$

TXZ173-191>194-202-209-217>225-228-151800-
CENTRAL AND SOUTH CENTRAL TEXAS

CITY           SKY/WX    TMP DP  RH WIND       PRES   REMARKS
GEORGETOWN     CLOUDY    55  48  77 S14       30.34S
AUSTIN/BERGSTM PTSUNNY   58  50  75 S12       30.33S
AUSTIN/MABRY   CLOUDY    57  47  69 VRB5      30.34R
*AUSTIN/EXEC   CLOUDY    52  46  82 S7        30.34S
*LAGO VISTA    CLOUDY    54  50  87 S5        30.32S
SAN MARCOS     MOSUNNY   60  50  69 S12       30.33F
NEW BRAUNFELS  SUNNY     59  49  69 S9        30.31F
RANDOLPH AFB   SUNNY     58  50  73 S9        30.32S
PT SAN ANTONIO MOSUNNY   58  49  74 SE6       30.30S
SAN ANTONIO    PTSUNNY   58  49  72 SE9       30.32F
STINSON FIELD  MOSUNNY   60  50  69 SE6       30.30F
*LA GRANGE     MOSUNNY   63  52  66 S14       30.32S
*GIDDINGS      SUNNY    N/A N/A N/A S10       30.35S
*GONZALES      MOSUNNY   66  53  62 S12       30.32F
$$

TXZ163>164-176>182-195>201-210>213-226-227-235-151800-
SOUTHEAST TEXAS

CITY           SKY/WX    TMP DP  RH WIND       PRES   REMARKS
COLLEGE STN    MOSUNNY   59  46  62 S10       30.36S
*BRYAN         PTSUNNY   57  44  61 S10       30.38S
*CALDWELL      SUNNY     59  48  66 S9        30.35F
*CROCKETT        N/A     54  39  58 S9        30.41S
*BRENHAM       MOSUNNY   62  49  62 SE12      30.36S
HUNTSVILLE     SUNNY     58  42  55 S12G17    30.36S
CONROE         SUNNY     59  44  57 SE10      30.38S
HOUSTON BUSH   MOSUNNY   61  45  55 SE10      30.38S
HOUSTON HOBBY  FAIR      62  47  57 SE13      30.37F
*HOUSTON SW AP FAIR      62  48  60 S10G17    30.38S
PEARLAND       FAIR      61  47  59 SE12      30.39S
HOUSTON HOOKS  FAIR      61  46  57 VRB7      30.38S
ELLINGTON FLD  NOT AVBL
SUGAR LAND     FAIR      63  48  58 SE13      30.37S
*HOUSTON EXEC  FAIR      63  48  59 S13       30.37F
*CLEVELAND MUN FAIR      60  39  46 S7        30.40F
*WHARTON       SUNNY     64  49  56 SE14      30.36S
*COLUMBUS      FAIR      63  49  61 SW10G16   30.36S
*EAGLE LAKE    SUNNY     65  52  63 S12       30.35F
$$

TXZ214>216-236>238-151800-
THE UPPER TEXAS COAST

CITY           SKY/WX    TMP DP  RH WIND       PRES   REMARKS
*ORANGE        FAIR      57  45  65 S7        30.43F
PORT ARTHUR    FAIR      59  39  47 S7        30.41S
GALVESTON      FAIR      63  49  60 SE10      30.39S
ANGLETON       FAIR      65  49  56 S13       30.37S
*BAY CITY      SUNNY     66  52  61 SE13      30.36S
PALACIOS       SUNNY     67  54  63 SE18      30.35S
$$

TXZ229>234-239>247-151800-
TEXAS COASTAL BEND AND RIO GRANDE PLAINS

CITY           SKY/WX    TMP DP  RH WIND       PRES   REMARKS
VICTORIA       MOSUNNY   68  51  54 S15       30.33F
*BEEVILLE      MOSUNNY   66  54  65 S13       30.31F
ROCKPORT       CLOUDY    61  55  81 SE8       30.33S
*PORT ARANSAS  NOT AVBL
*PORT LAVACA   NOT AVBL
*INGLESIDE     CLOUDY    67  57  70 SE8       30.32F
CORPUS CHRISTI PTSUNNY   69  55  60 S22       30.31F
CORPUS NAS     CLOUDY    68  57  68 S9        30.32S
*ROBSTOWN      PTSUNNY   70  54  57 S16G24    30.32F
ALICE          CLOUDY    69  52  54 S13       30.30F
KINGSVILLE NAS CLOUDY    69  54  58 S13       30.30F
COTULLA        MOSUNNY   60  48  64 S7        30.30S
LAREDO         PTSUNNY   65  54  67 S17G24    30.29F
$$

TXZ248>255-151800-
DEEP SOUTH TEXAS

CITY           SKY/WX    TMP DP  RH WIND       PRES   REMARKS
BROWNSVILLE    CLOUDY    72  55  55 SE22G31   30.32S
PORT ISABEL    CLOUDY    72  56  57 SE22      30.30F
*SOUTH PADRE   NOT AVBL
HARLINGEN      PTSUNNY   71  54  54 SE15      30.30S
*HEBBRONVILLE  PTSUNNY   63  51  63 S15       30.31S
MCALLEN        MOSUNNY   72  55  55 S15       30.30F
*WESLACO       PTSUNNY   69  53  56 S21G26    30.29F
FALFURRIAS     CLOUDY    71  53  53 SE12G17   30.29F
EDINBURG       CLOUDY    73  52  47 SE18G26   30.30F
*ZAPATA        PTSUNNY   65  53  63 SE13G18   30.28F
$$

TXZ213>215-236>238-242>244-246-247-251-254-255-151800-
CMAN STATIONS

STATION/POSITION TIME  TEMP    WIND        PRES    WAVE
                       AIR SEA DIR/SP/G            HT/PER
                 (UTC) (F)     (DEG/KT/KT) (MB)    (FT/S)
SABINE PASS      1630   55 51  140/  7/  8 1031.4
SEA RIM ST PARK  1600   55     130/  7/  8 1030.0
NORTH JETTY/GLS  1630      49  110/  9/  9 1028.9
EAGLE POINT      1630   52 47  130/  4/  5 1029.3
MORGANS POINT    1630      49  130/  8/  9 1029.2
PORT O`CONNOR    1630   60 53  130/ 11/ 12 1027.2
MALAQUITE BEACH  1630   60 57  130/  6/  7 1026.5
BAFFIN BAY       1630   63 57  160/ 11/ 12 1026.8
PORT ISABEL      1630   67 58  150/ 12/ 16 1026.5
$$




USA.gov is the U.S. government's official web portal to all federal, state and local government web resources and services.